Girona, Spain

4:18 AM CET on December 13, 2017 (GMT +0100)
Girona

Weather History for LEGE - November, 2013

Change the Weather History Date:

Wednesday, November 27, 2013

  Actual Average Record
Temperature  
Mean Temperature 36 °F -  
Max Temperature 46 °F 56 °F 69 °F (2006)
Min Temperature 25 °F 36 °F 25 °F (2013)
Degree Days  
Heating Degree Days 30    
Moisture  
Dew Point 26 °F    
Average Humidity 72    
Maximum Humidity 100    
Minimum Humidity 26    
Precipitation  
Precipitation 0.00 in 0.07 in - ()
Sea Level Pressure  
Sea Level Pressure 30.27 in    
Wind  
Wind Speed 6 mph ()    
Max Wind Speed 30 mph    
Max Gust Speed 47 mph    
Visibility 6.5 miles    
Events Snow    
Averages and records for this station are not official NWS values.
T = Trace of Precipitation, MM = Missing Value Source: Averaged Metar Reports

Daily Weather History Graph

Daily Weather History Graph

Search for Another Location

Airport or City:

Trip Planner

Search our weather history database for the weather conditions in past years. The results will help you decide how hot, cold, wet, or windy it might be!

Date:

Astronomy

Nov. 27, 2013 Rise Set
Actual Time 7:52 AM CET 5:20 PM CET
Civil Twilight 7:21 AM CET 5:50 PM CET
Nautical Twilight 6:47 AM CET 6:25 PM CET
Astronomical Twilight 6:14 AM CET 6:58 PM CET
Moon 1:34 AM CET (11/27) 1:54 PM CET (11/27)
Length of Visible Light 10h 29m
Length of Day
9h 27m
Waning Crescent, 34% of the Moon is Illuminated
Nov 27
Waning Crescent
Dec 3
New
Dec 9
First Quarter
Dec 17
Full
Dec 25
Last Quarter

Hourly Weather History & Observations

Time (CET) Temp. Windchill Dew Point Humidity Pressure Visibility Wind Dir Wind Speed Gust Speed Precip Events Conditions
12:00 AM 32 °F - 26 °F 70% 30.26 in - NNW 2.3 mph - -  
12:00 AM 32.0 °F - 26.6 °F 80% 30.24 in 6.2 mi Variable 1.2 mph - N/A   Partly Cloudy
12:30 AM 30.2 °F - 26.6 °F 86% 30.24 in 6.2 mi Variable 1.2 mph - N/A   Partly Cloudy
1:00 AM 29 °F - 26 °F 85% 30.25 in 16 mi WNW 3.5 mph - -   Scattered Clouds
1:00 AM 30.2 °F - 26.6 °F 86% 30.24 in 6.2 mi Variable 1.2 mph - N/A   Partly Cloudy
1:30 AM 30.2 °F - 26.6 °F 86% 30.21 in 6.2 mi Variable 1.2 mph - N/A   Partly Cloudy
2:00 AM 29 °F - 26 °F 84% 30.24 in - Calm Calm - -  
2:00 AM 28.4 °F - 26.6 °F 93% 30.21 in 6.2 mi Calm Calm - N/A   Partly Cloudy
2:30 AM 30.2 °F - 26.6 °F 86% 30.21 in 6.2 mi Variable 1.2 mph - N/A   Partly Cloudy
3:00 AM 28 °F - 26 °F 89% 30.24 in - NNE 2.3 mph - -  
3:00 AM 28.4 °F 24.6 °F 26.6 °F 93% 30.21 in 6.2 mi NE 3.5 mph - N/A   Partly Cloudy
3:30 AM 28.4 °F - 26.6 °F 93% 30.21 in 6.2 mi Variable 1.2 mph - N/A   Partly Cloudy
4:00 AM 28.4 °F - 26.6 °F 93% 30.21 in 6.2 mi Variable 2.3 mph - N/A   Partly Cloudy
4:30 AM 28.4 °F - 26.6 °F 93% 30.18 in 6.2 mi Variable 2.3 mph - N/A   Partly Cloudy
5:00 AM 26 °F - 26 °F 97% 30.22 in - NE 4.6 mph - -  
5:00 AM 26.6 °F 21.2 °F 24.8 °F 93% 30.18 in 6.2 mi NE 4.6 mph - N/A   Partly Cloudy
5:30 AM 28.4 °F 23.3 °F 26.6 °F 93% 30.21 in 6.2 mi NNE 4.6 mph - N/A   Partly Cloudy
6:00 AM 27 °F - 26 °F 95% 30.22 in - Calm Calm - -  
6:00 AM 28.4 °F - 26.6 °F 93% 30.21 in 6.2 mi NNW 1.2 mph - N/A   Partly Cloudy
6:30 AM 28.4 °F - 26.6 °F 93% 30.18 in 6.2 mi Variable 2.3 mph - N/A   Partly Cloudy
7:00 AM 26 °F - 25 °F 94% 30.22 in 19 mi Calm Calm - -   Scattered Clouds
7:00 AM 26.6 °F - 24.8 °F 93% 30.21 in 6.2 mi Calm Calm - N/A   Partly Cloudy
7:30 AM 26.6 °F - 26.6 °F 100% 30.18 in 6.2 mi West 2.3 mph - N/A   Partly Cloudy
8:00 AM 26 °F - 25 °F 96% 30.23 in - North 1.2 mph - -  
8:00 AM 26.6 °F - 26.6 °F 100% 30.21 in 6.2 mi Calm Calm - N/A   Partly Cloudy
8:30 AM 26.6 °F - 26.6 °F 100% 30.21 in 6.2 mi North 1.2 mph - N/A   Partly Cloudy
9:00 AM 31 °F - 29 °F 88% 30.24 in - NW 5.8 mph - -  
9:00 AM 32.0 °F 26.4 °F 28.4 °F 87% 30.21 in 6.2 mi NW 5.8 mph - N/A   Partly Cloudy
9:30 AM 33.8 °F - 30.2 °F 87% 30.21 in 6.2 mi Variable 1.2 mph - N/A   Partly Cloudy
10:00 AM 41.0 °F 38.0 °F 28.4 °F 61% 30.21 in 6.2 mi North 4.6 mph - N/A   Partly Cloudy
10:30 AM 41.0 °F 38.0 °F 24.8 °F 53% 30.24 in 6.2 mi North 4.6 mph - N/A   Partly Cloudy
11:00 AM 44 °F - 25 °F 34% 30.25 in - North 8.1 mph - -  
11:00 AM 44.6 °F 40.2 °F 24.8 °F 46% 30.24 in 6.2 mi North 8.1 mph - N/A   Partly Cloudy
11:30 AM 46.4 °F 39.0 °F 23.0 °F 40% 30.24 in 6.2 mi NE 19.6 mph - N/A   Partly Cloudy
12:00 PM 46 °F - 23 °F 27% 30.24 in - NE 28.8 mph - -  
12:00 PM 44.6 °F 35.5 °F 23.0 °F 43% 30.24 in 6.2 mi NE 25.3 mph 40.3 mph N/A   Partly Cloudy
12:30 PM 46.4 °F 37.2 °F 23.0 °F 40% 30.24 in 6.2 mi NNE 29.9 mph 47.2 mph N/A   Partly Cloudy
1:00 PM 46 °F - 22 °F 26% 30.24 in 25 mi NE 27.6 mph - -   Scattered Clouds
1:00 PM 44.6 °F 35.1 °F 21.2 °F 39% 30.24 in 6.2 mi NNE 27.6 mph 42.6 mph N/A   Partly Cloudy
1:30 PM 44.6 °F 34.7 °F 21.2 °F 39% 30.24 in 6.2 mi NE 29.9 mph 41.4 mph N/A   Partly Cloudy
2:00 PM 46 °F - 23 °F 27% 30.25 in - NNE 28.8 mph - -  
2:00 PM 46.4 °F 37.5 °F 21.2 °F 37% 30.24 in 6.2 mi NE 27.6 mph 40.3 mph N/A   Partly Cloudy
2:30 PM 44.6 °F 35.1 °F 23.0 °F 43% 30.27 in 6.2 mi NNE 27.6 mph 40.3 mph N/A   Scattered Clouds
3:00 PM 44 °F - 21 °F 27% 30.27 in - NE 27.6 mph - -  
3:00 PM 44.6 °F 35.3 °F 21.2 °F 39% 30.27 in 6.2 mi NE 26.5 mph 41.4 mph N/A   Scattered Clouds
3:30 PM 42.8 °F 34.3 °F 21.2 °F 42% 30.27 in 6.2 mi NE 19.6 mph - N/A   Scattered Clouds
3:48 PM 37.4 °F 26.4 °F 32.0 °F 81% 30.30 in 2.5 mi NE 23.0 mph 34.5 mph N/A Snow Light Snow
4:00 PM 37.4 °F 26.9 °F 32.0 °F 81% 30.30 in 2.5 mi NE 20.7 mph - N/A Snow Snow
4:30 PM 35.6 °F 26.6 °F 32.0 °F 87% 30.33 in 2.5 mi North 13.8 mph - N/A Snow Light Snow
5:00 PM 37 °F - 31 °F 73% 30.34 in - North 3.5 mph - -   Unknown Precipitation
5:00 PM 37.4 °F 33.8 °F 32.0 °F 81% 30.33 in 3.7 mi North 4.6 mph - N/A   Mostly Cloudy
5:30 PM 39.2 °F 35.9 °F 30.2 °F 70% 30.33 in 6.2 mi NNW 4.6 mph - N/A   Mostly Cloudy
6:00 PM 38 °F - 32 °F 70% 30.34 in - NNW 4.6 mph - -  
6:00 PM 39.2 °F 35.9 °F 30.2 °F 70% 30.33 in 6.2 mi NNW 4.6 mph - N/A   Mostly Cloudy
6:30 PM 39.2 °F - 30.2 °F 70% 30.33 in 6.2 mi Variable 2.3 mph - N/A   Mostly Cloudy
7:00 PM 38 °F - 29 °F 62% 30.35 in 12 mi North 6.9 mph - -   Mostly Cloudy
7:00 PM 39.2 °F 35.0 °F 30.2 °F 70% 30.33 in 6.2 mi North 5.8 mph - N/A   Mostly Cloudy
7:30 PM 37.4 °F 32.8 °F 28.4 °F 70% 30.36 in 6.2 mi North 5.8 mph - N/A   Mostly Cloudy
8:00 PM 36 °F - 28 °F 64% 30.37 in - North 6.9 mph - -  
8:00 PM 37.4 °F 32.1 °F 28.4 °F 70% 30.36 in 6.2 mi North 6.9 mph - N/A   Scattered Clouds
8:30 PM 35.6 °F 29.2 °F 28.4 °F 75% 30.36 in 6.2 mi NNE 8.1 mph - N/A   Scattered Clouds
9:00 PM 34 °F - 27 °F 66% 30.39 in - North 5.8 mph - -  
9:00 PM 33.8 °F 28.6 °F 26.6 °F 75% 30.36 in 6.2 mi North 5.8 mph - N/A   Scattered Clouds
9:30 PM 33.8 °F 28.6 °F 26.6 °F 75% 30.39 in 6.2 mi NNE 5.8 mph - N/A   Partly Cloudy
10:00 PM 37.4 °F 31.4 °F 24.8 °F 60% 30.39 in 6.2 mi North 8.1 mph - N/A   Scattered Clouds
10:30 PM 35.6 °F 30.7 °F 26.6 °F 70% 30.39 in 6.2 mi North 5.8 mph - N/A   Scattered Clouds
11:00 PM 35 °F - 26 °F 61% 30.41 in - North 6.9 mph - -  
11:00 PM 33.8 °F 28.6 °F 26.6 °F 75% 30.39 in 6.2 mi NNE 5.8 mph - N/A   Scattered Clouds
11:30 PM 33.8 °F 28.6 °F 26.6 °F 75% 30.39 in 6.2 mi NNE 5.8 mph - N/A   Partly Cloudy